<?xml version="1.0" encoding="UTF-8" standalone="no" ?>
<gpx xmlns="http://www.topografix.com/GPX/1/1" xmlns:xsi="http://www.w3.org/2001/XMLSchema-instance" xsi:schemaLocation="http://www.topografix.com/GPX/1/1 http://www.topografix.com/GPX/1/1/gpx.xsd" version="1.1" creator="VisuGPX - https://www.visugpx.com">
  <metadata>
    <name>LarmoBaden_PontNeuf_12.8km</name>
    <desc><![CDATA[gnerando idor: 9701901 9847312]]></desc>
  </metadata>
  <trk>
    <name><![CDATA[LarmorBaden_PontNeuf_12.8km-9701901]]></name>
    <extensions>
      <line xmlns="http://www.topografix.com/GPX/gpx_style/0/2">
        <color>0000FF</color>
        <width>4</width>
      </line>
    </extensions>
    <trkseg>
      <trkpt lat="47.61569" lon="-2.86885">
        <ele>5</ele>
        <time>2023-10-29T17:56:54Z</time>
      </trkpt>
      <trkpt lat="47.61627" lon="-2.86707">
        <ele>6</ele>
        <time>2023-10-29T17:59:52Z</time>
      </trkpt>
      <trkpt lat="47.61673" lon="-2.86573">
        <ele>6</ele>
        <time>2023-10-29T18:02:07Z</time>
      </trkpt>
      <trkpt lat="47.61765" lon="-2.86418">
        <ele>9</ele>
        <time>2023-10-29T18:05:13Z</time>
      </trkpt>
      <trkpt lat="47.61855" lon="-2.86294">
        <ele>3</ele>
        <time>2023-10-29T18:07:57Z</time>
      </trkpt>
      <trkpt lat="47.61859" lon="-2.86045">
        <ele>9</ele>
        <time>2023-10-29T18:11:41Z</time>
      </trkpt>
      <trkpt lat="47.61822" lon="-2.859">
        <ele>7</ele>
        <time>2023-10-29T18:14:00Z</time>
      </trkpt>
      <trkpt lat="47.61687" lon="-2.85906">
        <ele>10</ele>
        <time>2023-10-29T18:17:01Z</time>
      </trkpt>
      <trkpt lat="47.61567" lon="-2.85793">
        <ele>4</ele>
        <time>2023-10-29T18:20:10Z</time>
      </trkpt>
      <trkpt lat="47.61477" lon="-2.85681">
        <ele>2</ele>
        <time>2023-10-29T18:22:47Z</time>
      </trkpt>
      <trkpt lat="47.61407" lon="-2.85721">
        <ele>5</ele>
        <time>2023-10-29T18:24:27Z</time>
      </trkpt>
      <trkpt lat="47.61344" lon="-2.85806">
        <ele>4</ele>
        <time>2023-10-29T18:26:21Z</time>
      </trkpt>
      <trkpt lat="47.61278" lon="-2.85945">
        <ele>3</ele>
        <time>2023-10-29T18:28:54Z</time>
      </trkpt>
      <trkpt lat="47.61215" lon="-2.86097">
        <ele>4</ele>
        <time>2023-10-29T18:31:34Z</time>
      </trkpt>
      <trkpt lat="47.61162" lon="-2.86227">
        <ele>6</ele>
        <time>2023-10-29T18:33:51Z</time>
      </trkpt>
      <trkpt lat="47.6109" lon="-2.86367">
        <ele>8</ele>
        <time>2023-10-29T18:36:29Z</time>
      </trkpt>
      <trkpt lat="47.61016" lon="-2.86497">
        <ele>6</ele>
        <time>2023-10-29T18:39:02Z</time>
      </trkpt>
      <trkpt lat="47.60957" lon="-2.86564">
        <ele>5</ele>
        <time>2023-10-29T18:40:42Z</time>
      </trkpt>
      <trkpt lat="47.60888" lon="-2.86661">
        <ele>5</ele>
        <time>2023-10-29T18:42:48Z</time>
      </trkpt>
      <trkpt lat="47.60818" lon="-2.86758">
        <ele>5</ele>
        <time>2023-10-29T18:44:56Z</time>
      </trkpt>
      <trkpt lat="47.60689" lon="-2.86825">
        <ele>3</ele>
        <time>2023-10-29T18:47:59Z</time>
      </trkpt>
      <trkpt lat="47.60505" lon="-2.86728">
        <ele>9</ele>
        <time>2023-10-29T18:52:19Z</time>
      </trkpt>
      <trkpt lat="47.60386" lon="-2.86513">
        <ele>9</ele>
        <time>2023-10-29T18:56:29Z</time>
      </trkpt>
      <trkpt lat="47.60309" lon="-2.86279">
        <ele>8</ele>
        <time>2023-10-29T19:00:24Z</time>
      </trkpt>
      <trkpt lat="47.60356" lon="-2.86115">
        <ele>2</ele>
        <time>2023-10-29T19:03:04Z</time>
      </trkpt>
      <trkpt lat="47.60284" lon="-2.86091">
        <ele>4</ele>
        <time>2023-10-29T19:04:43Z</time>
      </trkpt>
      <trkpt lat="47.60182" lon="-2.86209">
        <ele>8</ele>
        <time>2023-10-29T19:07:35Z</time>
      </trkpt>
      <trkpt lat="47.60063" lon="-2.86121">
        <ele>10</ele>
        <time>2023-10-29T19:10:33Z</time>
      </trkpt>
      <trkpt lat="47.59969" lon="-2.86179">
        <ele>11</ele>
        <time>2023-10-29T19:12:49Z</time>
      </trkpt>
      <trkpt lat="47.59858" lon="-2.86264">
        <ele>17</ele>
        <time>2023-10-29T19:15:35Z</time>
      </trkpt>
      <trkpt lat="47.5977" lon="-2.86291">
        <ele>14</ele>
        <time>2023-10-29T19:17:35Z</time>
      </trkpt>
      <trkpt lat="47.59715" lon="-2.86459">
        <ele>6</ele>
        <time>2023-10-29T19:20:23Z</time>
      </trkpt>
      <trkpt lat="47.59859" lon="-2.86883">
        <ele>6</ele>
        <time>2023-10-29T19:27:30Z</time>
      </trkpt>
      <trkpt lat="47.59894" lon="-2.87225">
        <ele>9</ele>
        <time>2023-10-29T19:32:42Z</time>
      </trkpt>
      <trkpt lat="47.59883" lon="-2.87408">
        <ele>5</ele>
        <time>2023-10-29T19:35:27Z</time>
      </trkpt>
      <trkpt lat="47.59914" lon="-2.8749">
        <ele>5</ele>
        <time>2023-10-29T19:36:52Z</time>
      </trkpt>
      <trkpt lat="47.60035" lon="-2.87408">
        <ele>9</ele>
        <time>2023-10-29T19:39:49Z</time>
      </trkpt>
      <trkpt lat="47.60189" lon="-2.875">
        <ele>13</ele>
        <time>2023-10-29T19:43:31Z</time>
      </trkpt>
      <trkpt lat="47.60245" lon="-2.87735">
        <ele>16</ele>
        <time>2023-10-29T19:47:15Z</time>
      </trkpt>
      <trkpt lat="47.60375" lon="-2.88046">
        <ele>18</ele>
        <time>2023-10-29T19:52:44Z</time>
      </trkpt>
      <trkpt lat="47.60441" lon="-2.88439">
        <ele>9</ele>
        <time>2023-10-29T19:58:49Z</time>
      </trkpt>
      <trkpt lat="47.6043" lon="-2.8873">
        <ele>6</ele>
        <time>2023-10-29T20:03:11Z</time>
      </trkpt>
      <trkpt lat="47.60337" lon="-2.88883">
        <ele>7</ele>
        <time>2023-10-29T20:06:16Z</time>
      </trkpt>
      <trkpt lat="47.60437" lon="-2.89103">
        <ele>18</ele>
        <time>2023-10-29T20:10:15Z</time>
      </trkpt>
      <trkpt lat="47.60568" lon="-2.89338">
        <ele>18</ele>
        <time>2023-10-29T20:14:49Z</time>
      </trkpt>
      <trkpt lat="47.60499" lon="-2.89669">
        <ele>19</ele>
        <time>2023-10-29T20:20:01Z</time>
      </trkpt>
      <trkpt lat="47.60052" lon="-2.89746">
        <ele>15</ele>
        <time>2023-10-29T20:30:02Z</time>
      </trkpt>
      <trkpt lat="47.59942" lon="-2.8946">
        <ele>17</ele>
        <time>2023-10-29T20:34:58Z</time>
      </trkpt>
      <trkpt lat="47.59807" lon="-2.89588">
        <ele>6</ele>
        <time>2023-10-29T20:38:32Z</time>
      </trkpt>
      <trkpt lat="47.59764" lon="-2.89464">
        <ele>6</ele>
        <time>2023-10-29T20:40:37Z</time>
      </trkpt>
      <trkpt lat="47.5967" lon="-2.89343">
        <ele>5</ele>
        <time>2023-10-29T20:43:23Z</time>
      </trkpt>
      <trkpt lat="47.59567" lon="-2.89225">
        <ele>6</ele>
        <time>2023-10-29T20:46:17Z</time>
      </trkpt>
      <trkpt lat="47.5965" lon="-2.89005">
        <ele>4</ele>
        <time>2023-10-29T20:50:04Z</time>
      </trkpt>
      <trkpt lat="47.59291" lon="-2.88924">
        <ele>17</ele>
        <time>2023-10-29T20:58:08Z</time>
      </trkpt>
      <trkpt lat="47.5912" lon="-2.88966">
        <ele>17</ele>
        <time>2023-10-29T21:02:00Z</time>
      </trkpt>
      <trkpt lat="47.58988" lon="-2.89011">
        <ele>14</ele>
        <time>2023-10-29T21:05:00Z</time>
      </trkpt>
      <trkpt lat="47.58876" lon="-2.89024">
        <ele>11</ele>
        <time>2023-10-29T21:07:30Z</time>
      </trkpt>
      <trkpt lat="47.58696" lon="-2.89054">
        <ele>9</ele>
        <time>2023-10-29T21:11:32Z</time>
      </trkpt>
      <trkpt lat="47.58557" lon="-2.89081">
        <ele>8</ele>
        <time>2023-10-29T21:14:39Z</time>
      </trkpt>
      <trkpt lat="47.58348" lon="-2.89051">
        <ele>10</ele>
        <time>2023-10-29T21:19:19Z</time>
      </trkpt>
      <trkpt lat="47.58178" lon="-2.89063">
        <ele>4</ele>
        <time>2023-10-29T21:23:06Z</time>
      </trkpt>
      <trkpt lat="47.58237" lon="-2.8957">
        <ele>1</ele>
        <time>2023-10-29T21:30:50Z</time>
      </trkpt>
      <trkpt lat="47.58238" lon="-2.89547">
        <ele>2</ele>
        <time>2023-10-29T21:31:10Z</time>
      </trkpt>
      <trkpt lat="47.58455" lon="-2.89537">
        <ele>6</ele>
        <time>2023-10-29T21:36:00Z</time>
      </trkpt>
      <trkpt lat="47.58582" lon="-2.89782">
        <ele>6</ele>
        <time>2023-10-29T21:40:38Z</time>
      </trkpt>
      <trkpt lat="47.58542" lon="-2.89913">
        <ele>4</ele>
        <time>2023-10-29T21:42:48Z</time>
      </trkpt>
      <trkpt lat="47.5844" lon="-2.90055">
        <ele>2</ele>
        <time>2023-10-29T21:45:54Z</time>
      </trkpt>
      <trkpt lat="47.58296" lon="-2.90261">
        <ele>5</ele>
        <time>2023-10-29T21:50:21Z</time>
      </trkpt>
      <trkpt lat="47.58197" lon="-2.90542">
        <ele>3</ele>
        <time>2023-10-29T21:55:07Z</time>
      </trkpt>
      <trkpt lat="47.58352" lon="-2.90624">
        <ele>11</ele>
        <time>2023-10-29T21:58:46Z</time>
      </trkpt>
      <trkpt lat="47.584" lon="-2.90828">
        <ele>2</ele>
        <time>2023-10-29T22:02:01Z</time>
      </trkpt>
      <trkpt lat="47.58544" lon="-2.90471">
        <ele>4</ele>
        <time>2023-10-29T22:08:15Z</time>
      </trkpt>
      <trkpt lat="47.58723" lon="-2.90358">
        <ele>2</ele>
        <time>2023-10-29T22:12:35Z</time>
      </trkpt>
    </trkseg>
  </trk>
</gpx>